Overview Statistics Trail Chart Weather Telemetry Raw packets
 

This is the latest recevied weather packets stored in our database for station/object OE6ACM-10. If no packets are shown the sender has not sent any weather packets the latest 10 day(s).

<< 92 93 94 95 96 97 98 >>
Time Temp. Humidity Pressure Rain* Wind** Luminosity Snow
1788009419 33.33° C 88% 928.3 hPa - - - -
1788009119 33.33° C 90% 928.2 hPa - - - -
1788008819 33.33° C 89% 928.2 hPa - - - -
1788008519 33.89° C 90% 928.4 hPa - - - -
1788008219 32.78° C 94% 928.4 hPa - - - -
1788007919 32.22° C 100% 928.5 hPa - - - -
1788007619 31.11° C 97% 928.6 hPa - - - -
1788007319 31.67° C 98% 928.6 hPa - - - -
1788007019 33.33° C 100% 928.5 hPa - - - -
1788006719 31.11° C 100% 928.6 hPa - - - -
1788006419 29.44° C 100% 928.6 hPa - - - -
1788006119 28.33° C 100% 928.7 hPa - - - -
1788005819 28.33° C 100% 928.7 hPa - - - -
1788005519 27.78° C 100% 928.8 hPa - - - -
1788005219 27.78° C 100% 928.8 hPa - - - -
1788004919 27.22° C 100% 928.9 hPa - - - -
1788004619 27.78° C 100% 928.9 hPa - - - -
1788004319 27.22° C 100% 928.9 hPa - - - -
1788004019 27.78° C 100% 928.9 hPa - - - -
1788003719 27.78° C 100% 928.9 hPa - - - -
1788003419 27.22° C 100% 929 hPa - - - -
1788003119 27.22° C 100% 929 hPa - - - -
1788002819 26.67° C 100% 929.1 hPa - - - -
1788002519 26.67° C 100% 929.1 hPa - - - -
1788002219 26.67° C 100% 929 hPa - - - -

* Rain since midnight (hover to see other rain measurements)
** Current wind speed in m/s (hover to see current wind gust speed)